GW5825 Weather Reports


time (UTC)temp
C
wind
direction
speed
KPH
gust
KPH
rain 1hr
cm
rain 24hr
cm
rain mn
cm
humidity
%
barometer
mb
20260505070421 12 59 0.0 0.0 0.00 0.00 0.00 99 1014.1
20260505065916 11 59 0.0 0.0 0.00 0.00 0.00 99 1014.1
20260505065413 11 59 0.0 0.0 0.00 0.00 0.00 99 1014.1
20260505064910 11 59 0.0 0.0 0.00 0.00 0.00 99 1014.1
20260505064407 11 59 0.0 0.0 0.00 0.00 0.00 99 1014.2
20260505063906 11 59 0.0 0.0 0.00 0.00 0.00 99 1014.2
20260505063402 11 59 0.0 0.0 0.00 0.00 0.00 99 1014.3
20260505062858 11 59 0.0 0.0 0.00 0.00 0.00 99 1014.6
20260505062355 11 59 0.0 0.0 0.00 0.00 0.00 99 1014.6
20260505061852 11 59 0.0 0.0 0.00 0.00 0.00 99 1014.6
20260505061351 11 59 0.0 0.0 0.00 0.00 0.00 99 1014.4
20260505060848 12 59 0.0 0.0 0.00 0.00 0.00 99 1014.4
20260505060344 11 59 0.0 0.0 0.00 0.00 0.00 99 1014.5
20260505055840 12 59 0.0 0.0 0.00 0.00 0.00 99 1014.5
20260505055336 12 59 0.0 0.0 0.00 0.00 0.00 99 1014.6
20260505054834 12 59 0.0 0.0 0.00 0.00 0.00 99 1014.6
20260505054331 12 59 0.0 0.0 0.00 0.00 0.00 99 1014.6
20260505053829 12 59 0.0 0.0 0.00 0.00 0.00 99 1014.4
20260505053326 12 59 0.0 0.0 0.00 0.00 0.00 99 1014.5
20260505052822 12 59 0.0 0.0 0.00 0.00 0.00 99 1014.7
20260505052319 12 59 0.0 0.0 0.00 0.00 0.00 99 1014.6
20260505051817 12 59 0.0 0.0 0.00 0.00 0.00 99 1014.5
20260505051314 12 59 0.0 0.0 0.00 0.00 0.00 99 1014.6
20260505050812 12 59 0.0 0.0 0.00 0.00 0.00 99 1014.8
20260505050310 12 59 0.0 0.0 0.00 0.00 0.00 99 1014.6
20260505041740 12 59 0.0 0.0 0.00 0.00 0.00 98 1014.9
20260505041237 12 59 0.0 0.0 0.00 0.00 0.00 98 1015.0
20260505040735 12 59 0.0 0.0 0.00 0.00 0.00 98 1014.8
20260505040232 12 59 0.0 0.0 0.00 0.00 0.00 97 1014.8
20260505035729 12 59 0.0 0.0 0.00 0.00 0.00 97 1015.0
20260505035224 12 59 0.0 0.0 0.00 0.00 0.00 97 1015.0
20260505034721 13 59 0.0 0.0 0.00 0.00 0.00 96 1014.9
20260505034218 13 60 0.0 0.0 0.00 0.00 0.00 96 1015.0
20260505033715 13 59 0.0 0.0 0.00 0.00 0.00 96 1014.9
20260505033213 13 59 0.0 0.0 0.00 0.00 0.00 95 1014.8
20260505032711 13 59 0.0 0.0 0.00 0.00 0.00 95 1014.6
20260505032206 13 59 0.0 0.0 0.00 0.00 0.00 94 1014.7
20260505031704 13 59 0.0 0.0 0.00 0.00 0.00 95 1014.7
20260505031200 13 59 0.0 0.0 0.00 0.00 0.00 94 1014.7
20260505030657 13 59 0.0 0.0 0.00 0.00 0.00 93 1014.8
20260505030153 13 59 0.0 0.0 0.00 0.00 0.00 93 1014.8
20260505025649 13 59 0.0 0.0 0.00 0.00 0.00 92 1014.7
20260505025148 13 60 0.0 0.0 0.00 0.00 0.00 91 1014.6
20260505024645 14 59 0.0 0.0 0.00 0.00 0.00 91 1014.7
20260505024142 14 59 0.0 0.0 0.00 0.00 0.00 90 1014.7
20260505023639 14 59 0.0 0.0 0.00 0.00 0.00 89 1014.7
20260505023137 14 60 0.0 0.0 0.00 0.00 0.00 88 1014.7
20260505022634 15 59 0.0 0.0 0.00 0.00 0.00 87 1014.7
20260505022131 15 59 0.0 0.0 0.00 0.00 0.00 85 1014.6
20260505021627 15 59 0.0 0.0 0.00 0.00 0.00 84 1014.6
20260505021124 15 60 0.0 0.0 0.00 0.00 0.00 85 1014.4
20260505020620 15 60 0.0 0.0 0.00 0.00 0.00 85 1014.4
20260505020116 15 60 0.0 0.0 0.00 0.00 0.00 85 1014.4
20260505015613 15 60 0.0 0.0 0.00 0.00 0.00 84 1014.4
20260505015110 16 60 0.0 0.0 0.00 0.00 0.00 83 1014.4
20260505014607 16 60 0.0 0.0 0.00 0.00 0.00 82 1014.1
20260505014104 16 60 0.0 0.0 0.00 0.00 0.00 82 1014.0
20260505013601 16 60 0.0 0.0 0.00 0.00 0.00 80 1014.2
20260505013058 17 60 0.0 0.0 0.00 0.00 0.00 78 1014.0
20260505012556 17 60 0.0 0.0 0.00 0.00 0.00 75 1014.1
20260505012053 17 60 0.0 0.0 0.00 0.00 0.00 74 1014.0
20260505011548 17 60 0.0 0.0 0.00 0.00 0.00 73 1014.0
20260505011046 18 60 0.0 0.0 0.00 0.00 0.00 73 1014.1
20260505010541 18 60 0.0 0.0 0.00 0.00 0.00 70 1014.0
20260505010038 18 60 0.0 0.0 0.00 0.00 0.00 69 1014.1
20260505005534 19 83 0.0 0.0 0.00 0.00 0.00 68 1014.3
20260505005032 20 78 0.0 0.0 0.00 0.00 0.00 68 1014.2
20260505004529 20 76 0.0 0.0 0.00 0.00 0.00 64 1014.4
20260505004026 20 151 3.2 3.2 0.00 0.00 0.00 62 1014.5
20260505003523 20 69 0.0 0.0 0.00 0.00 0.00 63 1014.4
20260505003020 20 146 1.6 1.6 0.00 0.00 0.00 61 1014.3
20260505002515 20 112 0.0 0.0 0.00 0.00 0.00 60 1014.4
20260505002014 21 147 0.0 0.0 0.00 0.00 0.00 60 1014.5
20260505001511 21 52 0.0 0.0 0.00 0.00 0.00 60 1014.5
20260505001008 21 113 0.0 0.0 0.00 0.00 0.00 58 1014.6
20260505000506 21 120 0.0 0.0 0.00 0.00 0.00 57 1014.6
20260505000003 21 121 4.8 4.8 0.00 0.00 0.00 56 1014.4
20260504235500 22 95 0.0 0.0 0.00 0.00 0.00 55 1014.4
20260504234956 22 188 1.6 3.2 0.00 0.00 0.00 54 1014.5
20260504234453 22 145 1.6 3.2 0.00 0.00 0.00 54 1014.6
20260504233950 22 121 1.6 1.6 0.00 0.00 0.00 53 1014.7
20260504233445 23 153 3.2 3.2 0.00 0.00 0.00 55 1014.7
20260504232943 23 161 1.6 3.2 0.00 0.00 0.00 53 1014.6
20260504232440 23 175 4.8 6.4 0.00 0.00 0.00 51 1014.6
20260504231937 23 219 6.4 9.7 0.00 0.00 0.00 51 1014.7
20260504231433 23 148 4.8 4.8 0.00 0.00 0.00 51 1014.8
20260504230929 23 310 0.0 1.6 0.00 0.00 0.00 51 1014.9
20260504230426 23 164 1.6 3.2 0.00 0.00 0.00 50 1014.8
20260504225926 23 137 1.6 1.6 0.00 0.00 0.00 51 1014.9
20260504225422 23 125 3.2 4.8 0.00 0.00 0.00 50 1015.1
20260504224919 24 185 6.4 9.7 0.00 0.00 0.00 50 1014.9
20260504224415 24 103 1.6 1.6 0.00 0.00 0.00 48 1015.0
20260504223913 24 180 4.8 4.8 0.00 0.00 0.00 49 1015.0
20260504223408 24 183 3.2 3.2 0.00 0.00 0.00 50 1015.1
20260504222904 23 42 0.0 0.0 0.00 0.00 0.00 50 1015.0
20260504222401 23 241 8.0 11.3 0.00 0.00 0.00 50 1015.1
20260504221900 25 106 3.2 6.4 0.00 0.00 0.00 49 1015.3
20260504221356 24 271 4.8 4.8 0.00 0.00 0.00 49 1015.1
20260504220854 24 205 1.6 1.6 0.00 0.00 0.00 53 1015.3
20260504220350 24 180 9.7 11.3 0.00 0.00 0.00 49 1015.2
20260504215847 24 114 3.2 4.8 0.00 0.00 0.00 51 1015.4
20260504215344 25 169 9.7 11.3 0.00 0.00 0.00 49 1015.5
20260504214840 25 118 3.2 3.2 0.00 0.00 0.00 52 1015.2
20260504214337 25 259 1.6 1.6 0.00 0.00 0.00 49 1015.3
20260504213833 25 138 1.6 3.2 0.00 0.00 0.00 49 1015.3
20260504213329 24 263 3.2 4.8 0.00 0.00 0.00 47 1015.5
20260504212827 25 149 3.2 3.2 0.00 0.00 0.00 49 1015.5
20260504212323 25 182 1.6 1.6 0.00 0.00 0.00 51 1015.5
20260504211821 25 203 3.2 6.4 0.00 0.00 0.00 49 1015.5
20260504211316 24 156 6.4 6.4 0.00 0.00 0.00 48 1015.6
20260504210814 25 272 3.2 3.2 0.00 0.00 0.00 49 1015.7
20260504210311 24 127 9.7 11.3 0.00 0.00 0.00 48 1015.6
20260504205809 25 214 4.8 6.4 0.00 0.00 0.00 49 1015.4
20260504205306 24 154 4.8 4.8 0.00 0.00 0.00 50 1015.7
20260504204804 24 230 6.4 6.4 0.00 0.00 0.00 50 1015.6
20260504204302 25 125 9.7 11.3 0.00 0.00 0.00 48 1015.8
20260504203801 25 183 4.8 6.4 0.00 0.00 0.00 47 1015.9
20260504203258 25 112 4.8 9.7 0.00 0.00 0.00 47 1015.7
20260504202758 25 171 6.4 11.3 0.00 0.00 0.00 48 1015.8
20260504202256 25 203 6.4 6.4 0.00 0.00 0.00 46 1016.1
20260504201752 25 215 9.7 12.9 0.00 0.00 0.00 49 1016.0
20260504201250 25 201 4.8 9.7 0.00 0.00 0.00 51 1016.2
20260504200748 25 226 1.6 3.2 0.00 0.00 0.00 46 1016.1
20260504200243 25 212 8.0 9.7 0.00 0.00 0.00 49 1016.4
20260504195740 24 237 4.8 4.8 0.00 0.00 0.00 46 1016.3
20260504195236 24 194 4.8 6.4 0.00 0.00 0.00 47 1016.5
20260504194733 24 223 4.8 6.4 0.00 0.00 0.00 47 1016.9
20260504194229 25 179 6.4 9.7 0.00 0.00 0.00 49 1016.7
20260504193726 25 265 6.4 9.7 0.00 0.00 0.00 46 1016.8
20260504193223 25 197 4.8 6.4 0.00 0.00 0.00 48 1017.1
20260504192721 24 159 3.2 4.8 0.00 0.00 0.00 50 1017.2
20260504192219 25 158 9.7 12.9 0.00 0.00 0.00 47 1017.3
20260504191718 25 181 6.4 9.7 0.00 0.00 0.00 46 1017.3
20260504191214 25 204 9.7 11.3 0.00 0.00 0.00 47 1017.2
20260504190709 24 227 1.6 3.2 0.00 0.00 0.00 47 1017.2
20260504190206 25 172 3.2 4.8 0.00 0.00 0.00 44 1017.2
20260504185703 24 334 12.9 20.9 0.00 0.00 0.00 47 1017.3
20260504185159 24 166 3.2 4.8 0.00 0.00 0.00 47 1017.2
20260504184655 24 105 3.2 4.8 0.00 0.00 0.00 47 1017.6
20260504184150 25 154 4.8 6.4 0.00 0.00 0.00 41 1017.5
20260504183647 24 103 3.2 3.2 0.00 0.00 0.00 44 1017.6
20260504183145 23 136 4.8 6.4 0.00 0.00 0.00 46 1017.6
20260504182643 23 13 1.6 3.2 0.00 0.00 0.00 45 1017.8
20260504182140 24 152 14.5 17.7 0.00 0.00 0.00 44 1017.8
20260504181637 23 165 8.0 14.5 0.00 0.00 0.00 44 1017.7
20260504181135 23 187 9.7 14.5 0.00 0.00 0.00 44 1017.8
20260504180634 23 167 9.7 12.9 0.00 0.00 0.00 42 1017.8
20260504180132 24 111 3.2 3.2 0.00 0.00 0.00 44 1017.7
20260504175629 24 170 6.4 6.4 0.00 0.00 0.00 48 1017.9
20260504175125 24 192 4.8 6.4 0.00 0.00 0.00 46 1018.0
20260504174624 24 145 4.8 4.8 0.00 0.00 0.00 44 1018.0
20260504174120 23 190 6.4 6.4 0.00 0.00 0.00 45 1018.0
20260504173617 23 208 4.8 6.4 0.00 0.00 0.00 46 1018.2
20260504173114 23 161 14.5 17.7 0.00 0.00 0.00 46 1018.3
20260504172610 25 190 1.6 1.6 0.00 0.00 0.00 46 1018.0
20260504172108 24 189 3.2 4.8 0.00 0.00 0.00 47 1017.9
20260504171604 23 347 1.6 1.6 0.00 0.00 0.00 46 1018.0
20260504171101 23 132 3.2 4.8 0.00 0.00 0.00 46 1017.9
20260504170557 23 206 8.0 11.3 0.00 0.00 0.00 48 1018.0
20260504150941 21 149 8.0 11.3 0.00 0.00 0.00 58 1018.9
20260504150437 21 221 1.6 3.2 0.00 0.00 0.00 67 1019.1
20260504140904 18 177 4.8 4.8 0.00 0.00 0.00 81 1019.0
20260504140400 17 155 1.6 1.6 0.00 0.00 0.00 81 1018.9
20260504130325 12 54 0.0 0.0 0.00 0.00 0.00 99 1018.9
20260504120248 8 54 0.0 0.0 0.00 0.00 0.00 99 1018.7
20260504110716 8 54 0.0 0.0 0.00 0.00 0.00 99 1018.4
20260504110212 8 55 0.0 0.0 0.00 0.00 0.00 99 1018.5
20260504100130 8 54 0.0 0.0 0.00 0.00 0.00 99 1018.2
20260504081523 10 54 0.0 0.0 0.00 0.00 0.00 99 1018.6
20260504081019 10 54 0.0 0.0 0.00 0.00 0.00 99 1018.6
20260504080515 10 54 0.0 0.0 0.00 0.00 0.00 99 1018.6